timestamp,wind_dir_avg,wind_spd_avg,wind_spd_max_dir,wind_spd_gust,battery_voltage,lat,long
2019-11-28 00:04:01+00:00,318.0,7.85,324.0,8.96,12.57,47.59359,-54.27349
2019-11-28 00:14:01+00:00,318.0,7.25,322.0,8.77,12.57,47.59359,-54.27349
2019-11-28 00:24:01+00:00,308.0,7.83,307.0,8.82,12.57,47.59359,-54.27349
2019-11-28 00:34:01+00:00,317.0,7.31,316.0,8.69,12.57,47.59359,-54.27349
2019-11-28 00:44:01+00:00,312.0,6.75,308.0,7.74,12.57,47.59359,-54.27349
2019-11-28 00:54:01+00:00,315.0,7.9,318.0,8.99,12.57,47.59359,-54.27349
2019-11-28 01:04:01+00:00,309.0,7.0,312.0,9.12,12.57,47.59359,-54.27349
2019-11-28 01:14:01+00:00,318.0,8.5,317.0,9.71,12.57,47.59359,-54.27349
2019-11-28 01:24:01+00:00,327.0,7.89,324.0,8.85,12.57,47.59359,-54.27349
2019-11-28 01:34:01+00:00,330.0,7.39,326.0,9.47,12.57,47.59359,-54.27349
2019-11-28 01:44:01+00:00,333.0,6.46,340.0,7.65,12.57,47.59359,-54.27349
2019-11-28 01:54:01+00:00,321.0,9.17,324.0,10.57,12.57,47.59359,-54.27349
2019-11-28 02:04:01+00:00,323.0,8.15,321.0,10.21,12.57,47.59359,-54.27349
2019-11-28 02:14:01+00:00,324.0,8.32,331.0,11.46,12.49,47.59359,-54.27349
2019-11-28 02:24:01+00:00,325.0,9.03,325.0,10.87,12.49,47.59359,-54.27349
2019-11-28 02:34:01+00:00,335.0,7.81,333.0,9.36,12.49,47.59359,-54.27349
2019-11-28 02:44:01+00:00,344.0,8.09,342.0,9.46,12.49,47.59359,-54.27349
2019-11-28 02:54:01+00:00,337.0,9.25,338.0,10.88,12.49,47.59359,-54.27349
2019-11-28 03:04:01+00:00,340.0,7.91,344.0,10.18,12.49,47.59359,-54.27349
2019-11-28 03:14:01+00:00,335.0,8.23,339.0,9.36,12.49,47.59359,-54.27349
2019-11-28 03:24:01+00:00,328.0,8.4,337.0,10.68,12.49,47.59359,-54.27349
2019-11-28 03:34:01+00:00,346.0,9.03,346.0,10.39,12.49,47.59359,-54.27349
2019-11-28 03:44:01+00:00,347.0,7.71,345.0,8.91,12.49,47.59359,-54.27349
2019-11-28 03:54:01+00:00,343.0,7.5,344.0,9.67,12.49,47.59359,-54.27349
2019-11-28 04:04:01+00:00,338.0,7.32,337.0,8.38,12.49,47.59359,-54.27349
2019-11-28 04:14:01+00:00,338.0,5.94,341.0,6.73,12.49,47.59359,-54.27349
2019-11-28 04:24:01+00:00,358.0,8.39,358.0,9.97,12.49,47.59359,-54.27349
2019-11-28 04:34:01+00:00,355.0,5.76,343.0,8.27,12.49,47.59359,-54.27349
2019-11-28 04:44:01+00:00,352.0,6.28,345.0,8.31,12.49,47.59359,-54.27349
2019-11-28 04:54:01+00:00,349.0,7.3,352.0,9.39,12.49,47.59359,-54.27349
2019-11-28 05:04:01+00:00,0.0,5.49,358.0,7.29,12.49,47.59359,-54.27349
2019-11-28 05:14:01+00:00,356.0,5.01,356.0,5.65,12.49,47.59359,-54.27349
2019-11-28 05:24:01+00:00,1.0,5.7,1.0,7.33,12.49,47.59359,-54.27349
2019-11-28 05:34:01+00:00,10.0,4.75,7.0,5.54,12.49,47.59359,-54.27349
2019-11-28 05:44:01+00:00,16.0,5.73,21.0,8.0,12.49,47.59359,-54.27349
2019-11-28 05:54:01+00:00,15.0,7.01,17.0,7.79,12.49,47.59359,-54.27349
2019-11-28 06:04:01+00:00,8.0,4.55,3.0,5.83,12.49,47.59359,-54.27349
2019-11-28 06:14:01+00:00,357.0,4.2,2.0,4.64,12.41,47.59359,-54.27349
2019-11-28 06:24:01+00:00,359.0,4.77,356.0,5.34,12.41,47.59359,-54.27349
2019-11-28 06:34:01+00:00,356.0,3.98,352.0,4.34,12.41,47.59359,-54.27349
2019-11-28 06:44:01+00:00,358.0,6.4,357.0,7.28,12.41,47.59359,-54.27349
2019-11-28 06:54:01+00:00,354.0,6.56,358.0,7.39,12.41,47.59359,-54.27349
2019-11-28 07:04:01+00:00,356.0,5.54,358.0,6.74,12.41,47.59359,-54.27349
2019-11-28 07:14:01+00:00,347.0,5.91,339.0,7.13,12.41,47.59359,-54.27349
2019-11-28 07:24:01+00:00,357.0,6.56,355.0,7.5,12.41,47.59359,-54.27349
2019-11-28 07:34:01+00:00,11.0,5.13,15.0,5.64,12.41,47.59359,-54.27349
2019-11-28 07:44:01+00:00,9.0,6.02,2.0,6.55,12.41,47.59359,-54.27349
2019-11-28 07:54:01+00:00,7.0,5.78,11.0,6.64,12.41,47.59359,-54.27349
2019-11-28 08:04:01+00:00,15.0,4.35,18.0,4.97,12.41,47.59359,-54.27349
2019-11-28 08:14:01+00:00,0.0,4.83,359.0,5.84,12.41,47.59359,-54.27349
2019-11-28 08:24:01+00:00,353.0,5.95,356.0,6.69,12.41,47.59359,-54.27349
2019-11-28 08:34:01+00:00,334.0,5.46,337.0,6.02,12.41,47.59359,-54.27349
2019-11-28 08:44:01+00:00,340.0,4.87,342.0,5.47,12.41,47.59359,-54.27349
2019-11-28 08:54:01+00:00,309.0,4.86,308.0,5.56,12.41,47.59359,-54.27349
2019-11-28 09:04:01+00:00,327.0,4.64,322.0,5.34,12.41,47.59359,-54.27349
2019-11-28 09:14:01+00:00,323.0,5.69,322.0,6.24,12.41,47.59359,-54.27349
2019-11-28 09:24:01+00:00,323.0,4.44,321.0,5.43,12.41,47.59359,-54.27349
2019-11-28 09:34:01+00:00,325.0,4.43,323.0,5.15,12.41,47.59359,-54.27349
2019-11-28 09:44:01+00:00,333.0,4.03,342.0,4.62,12.41,47.59359,-54.27349
2019-11-28 09:54:01+00:00,345.0,4.55,350.0,5.05,12.41,47.59359,-54.27349
2019-11-28 10:04:01+00:00,350.0,4.33,348.0,5.11,12.41,47.59359,-54.27349
2019-11-28 10:14:01+00:00,351.0,4.0,347.0,4.69,12.41,47.59359,-54.27349
2019-11-28 10:24:01+00:00,343.0,4.83,347.0,5.4,12.41,47.59359,-54.27349
2019-11-28 10:34:01+00:00,335.0,4.4,338.0,4.99,12.41,47.59359,-54.27349
2019-11-28 10:44:01+00:00,332.0,4.76,337.0,5.3,12.41,47.59359,-54.27349
2019-11-28 10:54:01+00:00,342.0,3.15,349.0,3.68,12.41,47.59359,-54.27349
2019-11-28 11:04:01+00:00,347.0,3.12,350.0,3.66,12.41,47.59359,-54.27349
2019-11-28 11:14:01+00:00,328.0,2.02,315.0,2.48,12.41,47.59359,-54.27349
2019-11-28 11:24:01+00:00,332.0,2.65,329.0,3.32,12.41,47.59359,-54.27349
2019-11-28 11:34:01+00:00,316.0,1.75,321.0,2.2,12.41,47.59359,-54.27349
2019-11-28 11:44:01+00:00,318.0,3.57,324.0,4.02,12.41,47.59359,-54.27349
2019-11-28 11:54:01+00:00,315.0,3.35,312.0,3.76,12.41,47.59359,-54.27349
2019-11-28 12:04:01+00:00,343.0,3.11,344.0,3.62,12.41,47.59359,-54.27349
2019-11-28 12:14:01+00:00,336.0,2.5,335.0,2.88,13.68,47.59359,-54.27349
2019-11-28 12:24:01+00:00,330.0,2.38,337.0,2.78,13.68,47.59359,-54.27349
2019-11-28 12:34:01+00:00,338.0,2.45,340.0,3.16,13.68,47.59359,-54.27349
2019-11-28 12:44:01+00:00,349.0,3.16,345.0,3.72,13.68,47.59359,-54.27349
2019-11-28 12:54:01+00:00,350.0,3.83,354.0,4.39,13.68,47.59359,-54.27349
2019-11-28 13:04:01+00:00,20.0,3.08,18.0,3.59,13.68,47.59359,-54.27349
2019-11-28 13:14:01+00:00,355.0,2.41,1.0,3.38,14.16,47.59359,-54.27349
2019-11-28 13:24:01+00:00,14.0,3.76,22.0,4.71,14.16,47.59359,-54.27349
2019-11-28 13:34:01+00:00,28.0,4.11,31.0,5.03,14.16,47.59359,-54.27349
2019-11-28 13:44:01+00:00,17.0,3.3,14.0,3.83,14.16,47.59359,-54.27349
2019-11-28 13:54:01+00:00,2.0,2.75,356.0,3.12,14.16,47.59359,-54.27349
2019-11-28 14:04:01+00:00,8.0,2.63,359.0,2.98,14.16,47.59359,-54.27349
2019-11-28 14:14:01+00:00,20.0,1.92,23.0,2.51,13.76,47.59359,-54.27349
2019-11-28 14:24:01+00:00,10.0,2.01,13.0,2.56,13.76,47.59359,-54.27349
2019-11-28 14:34:01+00:00,28.0,2.4,39.0,2.84,13.76,47.59359,-54.27349
2019-11-28 14:44:01+00:00,32.0,2.82,36.0,3.15,13.76,47.59359,-54.27349
2019-11-28 14:54:01+00:00,15.0,2.22,16.0,2.73,13.76,47.59359,-54.27349
2019-11-28 15:04:01+00:00,29.0,1.84,38.0,2.59,13.76,47.59359,-54.27349
2019-11-28 15:14:01+00:00,40.0,2.55,45.0,3.3,14.24,47.59359,-54.27349
2019-11-28 15:24:01+00:00,38.0,0.72,60.0,1.2,14.24,47.59359,-54.27349
2019-11-28 15:34:01+00:00,66.0,1.78,72.0,2.17,14.24,47.59359,-54.27349
2019-11-28 15:44:01+00:00,68.0,1.93,77.0,2.34,14.24,47.59359,-54.27349
2019-11-28 15:54:01+00:00,77.0,3.06,78.0,3.45,14.24,47.59359,-54.27349
2019-11-28 16:04:01+00:00,80.0,3.65,82.0,4.23,14.24,47.59359,-54.27349
2019-11-28 16:14:01+00:00,80.0,4.41,82.0,5.24,13.68,47.59359,-54.27349
2019-11-28 16:24:01+00:00,83.0,6.03,84.0,6.66,13.68,47.59359,-54.27349
2019-11-28 16:34:01+00:00,74.0,5.58,72.0,6.28,13.68,47.59359,-54.27349
2019-11-28 16:44:01+00:00,85.0,6.69,89.0,7.64,13.68,47.59359,-54.27349
2019-11-28 16:54:01+00:00,86.0,4.55,83.0,6.08,13.68,47.59359,-54.27349
2019-11-28 17:04:01+00:00,85.0,3.14,78.0,4.23,13.68,47.59359,-54.27349
2019-11-28 17:14:01+00:00,79.0,3.84,77.0,5.05,14.32,47.59359,-54.27349
2019-11-28 17:24:01+00:00,88.0,3.59,80.0,5.04,14.32,47.59359,-54.27349
2019-11-28 17:34:01+00:00,101.0,2.79,90.0,3.63,14.32,47.59359,-54.27349
2019-11-28 17:44:01+00:00,99.0,2.39,83.0,3.24,14.32,47.59359,-54.27349
2019-11-28 17:54:01+00:00,86.0,2.91,82.0,3.52,14.32,47.59359,-54.27349
2019-11-28 18:04:01+00:00,87.0,1.57,66.0,2.45,14.32,47.59359,-54.27349
2019-11-28 18:14:01+00:00,76.0,2.85,76.0,3.39,13.21,47.59359,-54.27349
2019-11-28 18:24:01+00:00,70.0,3.74,66.0,4.22,13.21,47.59359,-54.27349
2019-11-28 18:34:01+00:00,82.0,3.76,79.0,4.68,13.21,47.59359,-54.27349
2019-11-28 18:44:01+00:00,108.0,3.29,116.0,4.92,13.21,47.59359,-54.27349
2019-11-28 18:54:01+00:00,108.0,3.69,98.0,5.33,13.21,47.59359,-54.27349
2019-11-28 19:04:01+00:00,110.0,3.6,104.0,5.15,13.21,47.59359,-54.27349
2019-11-28 19:14:01+00:00,83.0,4.34,75.0,4.99,12.81,47.59359,-54.27349
2019-11-28 19:24:01+00:00,83.0,4.58,88.0,5.61,12.81,47.59359,-54.27349
2019-11-28 19:34:01+00:00,78.0,6.47,78.0,8.08,12.81,47.59359,-54.27349
2019-11-28 19:44:01+00:00,95.0,3.4,115.0,4.92,12.81,47.59359,-54.27349
2019-11-28 19:54:01+00:00,98.0,4.17,87.0,5.96,12.81,47.59359,-54.27349
2019-11-28 20:04:01+00:00,99.0,4.63,120.0,7.54,12.81,47.59359,-54.27349
2019-11-28 20:14:01+00:00,98.0,3.59,89.0,5.17,12.65,47.59359,-54.27349
2019-11-28 20:24:01+00:00,92.0,5.14,97.0,6.96,12.65,47.59359,-54.27349
2019-11-28 20:34:01+00:00,96.0,4.92,102.0,6.49,12.65,47.59359,-54.27349
2019-11-28 20:44:01+00:00,106.0,3.98,92.0,6.61,12.65,47.59359,-54.27349
2019-11-28 20:54:01+00:00,93.0,5.77,94.0,7.78,12.65,47.59359,-54.27349
2019-11-28 21:04:01+00:00,89.0,5.93,90.0,8.23,12.65,47.59359,-54.27349
2019-11-28 21:14:01+00:00,88.0,4.75,92.0,7.4,12.65,47.59359,-54.27349
2019-11-28 21:24:01+00:00,86.0,6.24,80.0,7.69,12.65,47.59359,-54.27349
2019-11-28 21:34:01+00:00,85.0,6.2,85.0,8.69,12.65,47.59359,-54.27349
2019-11-28 21:44:01+00:00,88.0,7.27,74.0,9.71,12.65,47.59359,-54.27349
2019-11-28 21:54:01+00:00,88.0,7.69,80.0,11.18,12.65,47.59359,-54.27349
2019-11-28 22:04:01+00:00,86.0,8.97,87.0,11.52,12.65,47.59359,-54.27349
2019-11-28 22:14:01+00:00,86.0,8.48,94.0,9.77,12.57,47.59359,-54.27349
2019-11-28 22:24:01+00:00,80.0,9.69,86.0,13.77,12.57,47.59359,-54.27349
2019-11-28 22:34:01+00:00,77.0,10.16,76.0,11.56,12.57,47.59359,-54.27349
2019-11-28 22:44:01+00:00,78.0,9.88,79.0,11.46,12.57,47.59359,-54.27349
2019-11-28 22:54:01+00:00,75.0,10.14,74.0,11.69,12.57,47.59359,-54.27349
2019-11-28 23:04:01+00:00,82.0,11.43,83.0,13.34,12.57,47.59359,-54.27349
2019-11-28 23:14:01+00:00,77.0,9.84,77.0,11.34,12.57,47.59359,-54.27349
2019-11-28 23:24:01+00:00,73.0,9.87,72.0,11.78,12.57,47.59359,-54.27349
2019-11-28 23:34:01+00:00,80.0,9.48,80.0,11.34,12.57,47.59359,-54.27349
2019-11-28 23:44:01+00:00,74.0,9.56,75.0,11.26,12.57,47.59359,-54.27349
2019-11-28 23:54:01+00:00,71.0,10.95,66.0,12.35,12.57,47.59359,-54.27349
